Header for Extended Forecast Station List Page

Search by: ID | Name | Date | Parm | Value | Avg | % Avg
Sort by: ID | Name | Date | Parm | Value | Avg | % Avg

Enter search or view all records.

Click on id for station plot
#IDNameDateParmValueAvg% Avg
0ABOM8CLARK FORK-ABOVE MISSOULA04-08-2024DISCHARGE (KAF)855122370
1AFRI1SNAKE-AMERICAN FALLS RESERVOIR04-08-2024INFLOW (KAF)26521732153
2ALFW1PEND OREILLE-ALBENI FALLS DAM04-08-2024INFLOW (KAF)7546968378
3ALPW4SNAKE-NEAR ALPINE04-08-2024DISCHARGE (KAF)19831880105
4ANAW1SNAKE-NEAR ANATONE04-08-2024DISCHARGE (KAF)109291139396
5ANTI1HENRYS FORK-AT ST. ANTHONY04-08-2024DISCHARGE (KAF)594569104
6ARAI1SF BOISE-ANDERSON RANCH DAM04-08-2024INFLOW (KAF)430375115
7ARDW1ENTIAT-NEAR ARDENVOIR04-08-2024DISCHARGE (KAF)14518181
8BELM8CLARK FORK-BELOW MISSOULA04-08-2024DISCHARGE (KAF)1616232969
9BERO3MALHEUR-AGENCY VALLEY DAM04-08-2024INFLOW (KAF)404198
10BFEI1KOOTENAI-AT BONNERS FERRY04-08-2024STAGE (FT)MMM
11BFTI1SNAKE-NEAR BLACKFOOT04-08-2024DISCHARGE (KAF)19861144174
12BIGI1BOISE-AT GLENWOOD BRIDGE04-08-2024DISCHARGE (KAF)608289210
13BITM8BITTERROOT-NEAR MISSOULA04-08-2024DISCHARGE (KAF)761105972
14BONM8BLACKFOOT-NEAR BONNER04-08-2024DISCHARGE (KAF)42469661
15BONO3COLUMBIA-BONNEVILLE DAM04-08-2024INFLOW (KAF)483415766684
16BRNI1SNAKE-BROWNLEE DAM04-08-2024INFLOW (KAF)53164037132
17BUDW1BUMPING-BUMPING LAKE DAM04-08-2024INFLOW (KAF)929893
18BULO3BULLY CREEK-BULLY CREEK DAM04-08-2024INFLOW (KAF)51481
19CABI1CLARK FORK-CABINET GORGE DAM04-08-2024INFLOW (KAF)6418864174
20CFMM8FLATHEAD-AT COLUMBIA FALLS04-08-2024DISCHARGE (KAF)3458399687
21CHDW1CHELAN-LAKE CHELAN DAM04-08-2024INFLOW (KAF)51293755
22CHEI1FALL RIVER-NEAR CHESTER04-08-2024DISCHARGE (KAF)318302106
23CHJW1COLUMBIA-CHIEF JOSEPH DAM04-08-2024INFLOW (KAF)260293043686
24CIBW1COLUMBIA-AT INTL BOUNDARY04-08-2024DISCHARGE (KAF)244082934483
25CLFW1NACHES-NEAR CLIFFDEL04-08-2024DISCHARGE (KAF)29333887
26CLUW1CLE ELUM-CLE ELUM LAKE04-08-2024INFLOW (KAF)29733888
27COEI1COEUR D ALENE-COEUR D ALENE LAKE04-08-2024INFLOW (KAF)1535202676
28CSDI1NF PAYETTE-CASCADE DAM04-08-2024INFLOW (KAF)35041784
29DEDI1DEADWOOD-NEAR LOWMAN04-08-2024INFLOW (KAF)115110104
30DLGM8CLARK FORK-AT DEER LODGE04-08-2024DISCHARGE (KAF)657488
31DRMM8CLARK FORK-NR DRUMMOND04-08-2024DISCHARGE (KAF)19321789
32DWRI1NF CLEARWATER-DWORSHAK DAM04-08-2024INFLOW (KAF)1724216380
33EASW1YAKIMA-AT EASTON04-08-2024DISCHARGE (KAF)869392
34EMMI1PAYETTE-NEAR EMMETT04-08-2024DISCHARGE (KAF)997108692
35FCFM8NF FLATHEAD-NEAR COLUMBIA FALLS04-08-2024DISCHARGE (KAF)1149145279
36GCDW1COLUMBIA-GRAND COULEE DAM04-08-2024INFLOW (KAF)276033140788
37GIBO3UMATILLA-NEAR GIBBON04-08-2024DISCHARGE (KAF)585999
38HALI1BIG WOOD-AT HAILEY04-08-2024DISCHARGE (KAF)230183126
39HEII1SNAKE-NEAR HEISE04-08-2024DISCHARGE (KAF)33742844119
40HHWM8SF FLATHEAD-HUNGRY HORSE DAM04-08-2024INFLOW (KAF)1440173283
41HODO3HOOD-NEAR TUCKER BRIDGE04-08-2024DISCHARGE (KAF)19419699
42HOPI1PEND OREILLE-LAKE PEND OREILLE NR HOPE04-08-2024LAKE ELEVATION (FT)MMM
43HOTI1BRUNEAU-NEAR HOT SPRINGS04-08-2024DISCHARGE (KAF)211143147
44HWRI1BIG LOST-AT HOWELL RANCH NEAR CHILLY04-08-2024DISCHARGE (KAF)180129139
45IHDW1SNAKE-ICE HARBOR DAM04-08-2024INFLOW (KAF)160561799889
46IPDI1HENRYS FORK-ISLAND PARK DAM04-08-2024INFLOW (KAF)17218195
47JDAO3COLUMBIA-JOHN DAY DAM04-08-2024INFLOW (KAF)472125558685
48JKSW4SNAKE-NEAR JACKSON04-08-2024DISCHARGE (KAF)16281491109
49JLKW4SNAKE-JACKSON LAKE AT DAM04-08-2024INFLOW (KAF)726682107
50KADW1KACHESS-KACHESS DAM04-08-2024INFLOW (KAF)708880
51KEDW1YAKIMA-KEECHELUS LAKE04-08-2024INFLOW (KAF)8110081
52KERM8FLATHEAD-SELI’Š KSANKA QLISPE’ DAM04-08-2024INFLOW (KAF)4092483385
53KIOW1YAKIMA-AT KIONA04-08-2024DISCHARGE (KAF)62078179
54LAUW1KETTLE-AT LAURIER04-08-2024DISCHARGE (KAF)1432167785
55LEOI1KOOTENAI-AT LEONIA04-08-2024DISCHARGE (KAF)3945408597
56LGDW1SNAKE-LOWER GRANITE DAM04-08-2024INFLOW (KAF)160111797089
57LGSW1SNAKE-LITTLE GOOSE DAM04-08-2024INFLOW (KAF)160111797289
58LLKW1SPOKANE-AT LONGLAKE04-08-2024INFLOW (KAF)1681237471
59LMNW1SNAKE-LOWER MONUMENTAL DAM04-08-2024INFLOW (KAF)160561799189
60LUCI1BOISE-LUCKY PEAK DAM04-08-2024INFLOW (KAF)12831114115
61LWRI1LITTLE WOOD-LITTLE WOOD DAM04-08-2024INFLOW (KAF)6951137
62LYDM8KOOTENAI-LIBBY DAM04-08-2024INFLOW (KAF)4589511490
63MACI1BIG LOST-MACKAY RESERVOIR NEAR MACKAY04-08-2024INFLOW (KAF)15990177
64MAGI1BIG WOOD-MAGIC DAM04-08-2024INFLOW (KAF)214151142
65MCDW1COLUMBIA-MCNARY DAM04-08-2024INFLOW (KAF)454455477383
66MILI1SNAKE-AT MILNER04-08-2024DISCHARGE (KAF)46353877
67MODO3DESCHUTES-AT MOODY NR BIGGS04-08-2024DISCHARGE (KAF)12741262101
68MONO3NF JOHN DAY-AT MONUMENT04-08-2024DISCHARGE (KAF)42443498
69MYKO3MCKAY CREEK-NEAR PILOT ROCK04-08-2024DISCHARGE (KAF)81746
70NACW1NACHES-NEAR NACHES04-08-2024DISCHARGE (KAF)44248491
71NOXM8CLARK FORK-NOXON RAPIDS DAM04-08-2024INFLOW (KAF)5821781375
72ORFI1CLEARWATER-AT OROFINO04-08-2024DISCHARGE (KAF)3529391590
73OWYO3OWYHEE-OWYHEE DAM04-08-2024INFLOW (KAF)424181234
74PARI1BOISE-NEAR PARMA04-08-2024DISCHARGE (KAF)580257226
75PARW1YAKIMA-NEAR PARKER04-08-2024DISCHARGE (KAF)31748865
76PATW1METHOW-NEAR PATEROS04-08-2024DISCHARGE (KAF)49079462
77PDTO3UMATILLA-AT PENDLETON04-08-2024DISCHARGE (KAF)10210696
78PESW1WENATCHEE-AT PESHASTIN04-08-2024DISCHARGE (KAF)971125178
79PIHI1PORTNEUF-AT POCATELLO04-08-2024DISCHARGE (KAF)15350303
80PITW1KLICKITAT-NEAR PITT04-08-2024DISCHARGE (KAF)415415100
81PLDI1SF SNAKE-PALISADES DAM04-08-2024INFLOW (KAF)29302631111
82PRTI1PRIEST-NEAR PRIEST RIVER04-08-2024DISCHARGE (KAF)61770488
83PRWW1COLUMBIA-PRIEST RAPIDS DAM04-08-2024INFLOW (KAF)286353518481
84RCCM8ROCK CREEK-NEAR CLINTON04-08-2024DISCHARGE (KAF)20323786
85REXI1HENRYS FORK-AT REXBURG04-08-2024DISCHARGE (KAF)682648105
86RIDI1WILLOW CREEK-RIRIE DAM04-08-2024INFLOW (KAF)7434217
87RILW1TIETON-RIMROCK LAKE NEAR RIMROCK04-08-2024INFLOW (KAF)15917491
88RRHW1COLUMBIA-ROCKY REACH DAM04-08-2024INFLOW (KAF)276773379782
89SATI1ST MARIES-NEAR SANTA04-08-2024DISCHARGE (KAF)619366
90SERO3JOHN DAY-AT SERVICE CK04-08-2024DISCHARGE (KAF)669611109
91SHYI1SNAKE-NEAR SHELLEY04-08-2024DISCHARGE (KAF)25551819140
92SIFI1SNAKE-AB EAGLE ROCK NR IDAHO FALLS04-08-2024DISCHARGE (KAF)27402000137
93SJMI1ST JOE-AT ST MARIES04-08-2024STAGE (FT)MMM
94SNAI1SNAKE-AT BLACKFOOT04-08-2024DISCHARGE (KAF)20381169174
95SPDI1CLEARWATER-AT SPALDING04-08-2024DISCHARGE (KAF)5082608184
96SPOW1SPOKANE-AT SPOKANE04-08-2024DISCHARGE (KAF)1490212870
97SRGM8CLARK FORK-AT ST REGIS04-08-2024DISCHARGE (KAF)2183306571
98STRM8ST. REGIS-NEAR ST. REGIS04-08-2024DISCHARGE (KAF)20223187
99SWAI1SNAKE-BELOW SWAN FALLS04-08-2024DISCHARGE (KAF)23991764136
100TCHW1WALLA WALLA-NEAR TOUCHET04-08-2024DISCHARGE (KAF)9610393
101TDAO3COLUMBIA-THE DALLES DAM04-08-2024INFLOW (KAF)474715578285
102TEAI1TETON-NEAR ST. ANTHONY04-08-2024DISCHARGE (KAF)385335115
103TNAW1TEANAWAY-BELOW FORKS04-08-2024DISCHARGE (KAF)9810692
104TONW1OKANOGAN-NEAR TONASKET04-08-2024DISCHARGE (KAF)812141058
105TRYO3GRANDE RONDE-TROY04-08-2024DISCHARGE (KAF)999110890
106UMAO3UMATILLA-NEAR UMATILLA04-08-2024DISCHARGE (KAF)649071
107UMTW1YAKIMA-AT UMTANUM04-08-2024DISCHARGE (KAF)71679191
108UNDW1WHITE SALMON-NEAR UNDERWOOD04-08-2024DISCHARGE (KAF)24428785
109WANW1COLUMBIA-WANAPUM DAM04-08-2024INFLOW (KAF)286343511182
110WEII1SNAKE-AT WEISER04-08-2024DISCHARGE (KAF)48513623134
111WELW1COLUMBIA-WELLS DAM04-08-2024INFLOW (KAF)273353279483
112WGCM8MF FLATHEAD-NEAR WEST GLACIER04-08-2024DISCHARGE (KAF)1131139481
113WHBI1SALMON-AT WHITEBIRD04-08-2024DISCHARGE (KAF)4623505891
114WRMO3MALHEUR-WARM SPRINGS DAM04-08-2024INFLOW (KAF)5844132
115WSRI1WEISER-NEAR WEISER04-08-2024DISCHARGE (KAF)296291102